www.pogodaiklimat.ru

Погода и климат >> Архив погоды >> Австралия >> Argyle Aero


ПОГОДА в Argyle Aero

  • Прогноз погоды в Argyle Aero
  • Монитор погоды в Argyle Aero
  • Климат города

АРХИВ ПОГОДЫ в Argyle Aero

Время (UTC), дата Ветер
(напр.,м/с)
 
Видим.   Явления Облачность Т
(С)
Тd
(С)
f
(%)
Тe
(С)
Тes
(С)
Комфортность P
(гПа)
Po
(гПа)
Тmin
(С)
Tmax
(С)
R
(мм)
R24
(мм)
S
(см)
10 17.01 СЗ 3 н/о н/о +35.0 +16.2 33 +38 +38 очень
душно
1002.0 983.8
13 17.01 З 3 н/о н/о +32.0 +20.7 51 +39 +39 очень
душно
1004.6 986.4 +38.2
16 17.01 СЗ 4 н/о н/о +27.2 +20.7 68 +34 +34 очень
душно
1006.1 987.8
19 17.01 В 2 н/о н/о +25.1 +21.5 80 +32 +32 очень
душно
1005.6 987.3
22 17.01 В 3 н/о 10/0
[]
+25.9 +22.4 81 +34 +34 очень
душно
1007.8 989.5
01 18.01 СЗ 3 н/о {туман} 8/0
[]
+28.4 +21.2 65 +36 +44 очень
душно
1007.2 988.9 +24.2
04 18.01 СВ 3 н/о {туман} н/о +32.3 +20.5 50 +39 +39 очень
душно
1005.6 987.3
07 18.01 В 3 н/о {туман} н/о +34.1 +19.2 42 +39 +39 очень
душно
1003.3 985.1
10 18.01 СВ 2 н/о н/о +31.7 +21.4 54 +39 +39 очень
душно
1003.9 985.7
16 18.01 СЗ 3 н/о н/о +28.5 +21.7 67 +37 +37 очень
душно
1006.1 987.8
19 18.01 С 0 н/о н/о +28.2 +20.5 63 +35 +35 очень
душно
1005.3 987.0
22 18.01 В 2 н/о н/о +26.9 +22.3 76 +35 +35 очень
душно
1007.0 988.7
01 19.01 С 3 н/о н/о +29.8 +23.3 68 +40 +40 очень
душно
1007.3 989.0 +26.7
04 19.01 СВ 3 н/о н/о +33.7 +21.6 49 +42 +42 опасность
перегрева
1005.3 987.0
07 19.01 ЮВ 3 н/о н/о +34.4 +21.9 48 +43 +43 опасность
перегрева
1002.4 984.2
10 19.01 В 3 н/о н/о +31.6 +21.8 56 +40 +40 очень
душно
1003.4 985.2
13 19.01 С 3 н/о н/о +29.9 +23.6 69 +41 +41 опасность
перегрева
1005.7 987.4 +34.8
16 19.01 штиль 0 н/о 4/0 2000 м
[]
+28.5 +24.7 80 +41 +41 опасность
перегрева
1005.0 986.7
19 19.01 ЮВ 3 н/о 10/10 1000 м
[]
+26.9 +21.9 74 +35 +35 очень
душно
1004.4 986.2
22 19.01 Ю 7 2300 м {туман} 10/10 200 м
[]
+23.2 +23.1 99 +32 +32 очень
душно
1006.9 988.6
04 20.01 ЮЗ 3 н/о н/о +30.2 +21.5 60 +38 +38 очень
душно
1004.2 986.0
07 20.01 Ю 4 н/о 9/9 600 м
[]
+29.9 +22.6 65 +39 +40 очень
душно
1001.8 983.6
13 20.01 СЗ 2 н/о н/о +29.4 +24.9 77 +42 +42 опасность
перегрева
1004.5 986.3 +34.0
16 20.01 С 2 н/о н/о +28.5 +24.4 79 +40 +40 очень
душно
1003.0 984.8
19 20.01 СЗ 2 н/о н/о +27.5 +24.6 84 +39 +39 очень
душно
1002.2 984.0
22 20.01 Ю 2 н/о н/о +27.2 +25.5 90 +40 +40 очень
душно
985.3
01 21.01 Ю 4 н/о н/о +32.1 +22.2 56 +41 +41 опасность
перегрева
1003.7 985.5 +24.5
04 21.01 ЮВ 6 н/о н/о +35.6 +17.9 35 +39 +39 очень
душно
1001.9 983.7
07 21.01 ЮВ 6 н/о н/о +36.8 +13.4 25 +37 +37 очень
жарко
999.3 981.1
10 21.01 ЮВ 3 н/о н/о +33.4 +16.3 36 +36 +36 очень
душно
1000.5 982.3
13 21.01 ЮЗ 3 н/о н/о +30.9 +21.1 56 +38 +38 очень
душно
1002.3 984.1 +37.5
16 21.01 В 3 н/о н/о +27.8 +18.9 58 +33 +33 очень
душно
1001.2 983.0
19 21.01 З 2 н/о н/о +27.1 +23.6 81 +37 +37 очень
душно
1001.4 983.2
22 21.01 Ю 2 н/о н/о +27.3 +23.1 78 +37 +37 очень
душно
1003.3 985.1
01 22.01 Ю 4 н/о н/о +33.3 +20.5 47 +40 +40 очень
душно
1003.1 984.9 +25.4
04 22.01 ЮЗ 5 н/о н/о +36.6 +17.3 32 +40 +40 очень
душно
1000.7 982.5
07 22.01 Ю 5 н/о н/о +37.3 +15.1 27 +39 +39 очень
душно
998.7 980.6
10 22.01 Ю 2 н/о н/о +35.1 +16.0 32 +37 +37 очень
душно
998.7 980.6
13 22.01 В 3 н/о 9/0
[]
+31.5 +18.3 45 +36 +36 очень
душно
1001.8 983.6 +37.6
16 22.01 ЮВ 5 н/о 10/0
[]
+27.5 +20.6 66 +34 +34 очень
душно
1003.1 984.9
19 22.01 Ю 2 н/о н/о +26.4 +22.3 78 +34 +34 очень
душно
1002.0 983.8
22 22.01 Ю 2 н/о н/о +26.5 +22.4 78 +35 +35 очень
душно
1003.4 985.2
01 23.01 Ю 3 н/о 8/8 600 м
[]
+31.5 +22.0 57 +40 +43 очень
душно
1003.2 985.0 +25.6
04 23.01 Ю 4 н/о 3/3 1000 м
[]
+34.0 +20.9 46 +41 +52 опасность
перегрева
1001.1 982.9
07 23.01 В 4 н/о 1/0 2000 м
[]
+36.0 +19.1 37 +41 +47 опасность
перегрева
998.4 980.3
16 23.01 С 2 н/о н/о +28.4 +23.0 73 +38 +38 очень
душно
1001.5 983.3
19 23.01 З 2 н/о н/о +27.0 +24.1 84 +37 +37 очень
душно
1001.0 982.8
22 23.01 Ю 3 н/о н/о +27.5 +23.8 80 +38 +38 очень
душно
1001.5 983.3
04 24.01 ЮВ 7 н/о н/о +36.7 +17.4 32 +40 +40 очень
душно
998.3 980.2
07 24.01 Ю 4 н/о 1/0 2000 м
[]
+37.5 +17.6 31 +41 +46 опасность
перегрева
996.3 978.2
10 24.01 В 3 н/о 6/0
[]
+35.4 +19.4 39 +41 +41 опасность
перегрева
996.5 978.4

 

Местоположение метеостанции Argyle Aero (Западная Австралия, Австралия): широта -16.63 долгота 128.45 высота над уровнем моря 165 м.

В архиве по умолчанию представлена погода в Argyle Aero за последнюю неделю. Архивные данные за месяц целиком и за предыдущие месяцы, начиная с января 2011 года, Вы можете получить, выбрав интересующий диапазон дат из раскрывающегося списка и нажав кнопку "Ввод!".

Внимание! Время в таблицах - всемирное. Для получения местного времени необходимо прибавить поправку, которая в Argyle Aero равна 8 ч.

Смотрите также архив погоды в соседних городах и на ближайших метеорологических станциях:

Погода в Kununurra (Западная Австралия, Австралия) (99 км)
Погода в Wyndham Aero (Западная Австралия, Австралия) (130 км)
Погода в Halls Creek Airport (Западная Австралия, Австралия) (197 км)
Погода в Victoria River Downs (Северная территория, Австралия) (275 км)
Погода в Port Keats Aero (Северная территория, Австралия) (289 км)
Погода в Lajamanu (Северная территория, Австралия) (299 км)
Погода в Manbulloo Csiro (Северная территория, Австралия) (313 км)
Погода в Kalumburu (Западная Австралия, Австралия) (323 км)
Погода в Fitzroy Crossing Aero (Западная Австралия, Австралия) (352 км)
Погода в Truscott (Западная Австралия, Австралия) (360 км)

Пояснения к столбцам:

Ветер - указаны скорость ветра в м/с - средняя за 10 мин, порывы в срок и между сроками (в фигурных скобках) и направление, откуда дует ветер: С - северный, СВ - северо-восточный, В - восточный, ЮВ - юго-восточный, Ю - южный, ЮЗ - юго-западный, З - западный, СЗ - северо-западный.
Видимость - горизонтальная дальность видимости в метрах или километрах. При видимости от 1 до 10 км при отсутствии осадков обычно наблюдается дымка, при ухудшении видимости до 1 км и менее - туман. В сухую погоду видимость может ухудшаться дымом, пылью или мглою.
Явления - указаны атмосферные явления, наблюдавшиеся в срок или в последний час перед сроком; фигурными скобками обозначены явления, наблюдавшиеся между сроками (за 1-3 часа до срока); квадратными скобками обозначены град или гололедные отложения с указанием их диаметра в мм.
Облачность - указаны через наклонную черту общая и нижняя облачность в баллах и высота нижней границы облаков в метрах; квадратными скобками обозначены формы облаков: Ci - перистые, Cs - перисто-слоистые, Cc - перисто-кучевые, Ac - высококучевые, As - высокослоистые, Sc - слоисто-кучевые, Ns - слоисто-дождевые, Cu - кучевые, Cb - кучево-дождевые. Подробнее классификацию облаков см. в Атласе облаков (PDF).
T - Температура воздуха - температура, измеренная на высоте 2 м над землей.
Td - Температура точки росы - температура, при понижении до которой содержащийся в воздухе водяной пар достигнет насыщения.
f - Относительная влажность воздуха - влажноcть воздуха, измеренная на высоте 2 м над землей.
Te - Эффективная температура - температура, которую ощущает одетый по сезону человек в тени. Характеристика душности погоды. При расчете учитывается влияние влажности воздуха и скорости ветра на теплоощущения человека.
Tes - Эффективная температура на солнце - температура, которую ощущает человек, с поправкой на солнечный нагрев. Характеристика знойности погоды. Зависит от высоты солнца над горизонтом, облачности и скорости ветра. Ночью, в пасмурную погоду, а также при ветре 12 м/с и более поправка равна нулю.
P - Атмосферное давление - приведенное к уровню моря атмосферное давление.
Po - Атмосферное давление - измеренное на уровне метеостанции атмосферное давление.
Tmin - Минимальная температура - минимум температуры воздуха на высоте 2 м над землей.
Tmax - Максимальная температура - максимум температуры воздуха на высоте 2 м над землей.
R - Количество осадков - Количество выпавших осадков за период времени, мм. При наведении курсора мыши на число - период времени, за который выпало указанное количество осадков.
R24 - Количество осадков - Количество выпавших осадков за 24 часа, мм.
S - Снежный покров - Высота снежного покрова, см. При наведении курсора мыши на число - состояние снежного покрова и степень покрытия местности в баллах.